www.pogodaiklimat.ru

Погода и климат >> Архив погоды >> Россия >> Ненецкий АО >> Амдерма


ПОГОДА в Амдерме

  • Прогноз погоды в Амдерме
  • Монитор погоды в Амдерме
  • Климат города

АРХИВ ПОГОДЫ в Амдерме

Время (UTC), дата Ветер
(напр.,м/с)
 
Видим.   Явления Облачность Т
(С)
Тd
(С)
f
(%)
Тe
(С)
Тes
(С)
Комфортность P
(гПа)
Po
(гПа)
Тmin
(С)
Tmax
(С)
R
(мм)
R24
(мм)
S
(см)
18 20.06 В 4 10 км 3/3 300 м
[Cu Sc]
+2.0 +1.5 96 -3 -3 1000.3 994.0
21 20.06 СВ 3 4000 м дымка {туман} 10/10 300 м
[Sc]
+0.9 +0.8 99 -4 -4 1000.4 994.1
00 21.06 СВ 5 10 км {туман} ясно +1.9 +1.6 98 -4 -3 1001.0 994.7
03 21.06 СВ 7-10
{10}
200 м туман {морось} [диам. гололёда 0 мм] ?/? -0.3 -0.3 100 -8 -8 1002.0 995.7 -0.3 0.0 0
06 21.06 СВ 7
{10}
2000 м дымка {морось, туман} 10/10 200 м
[St]
0.0 -0.1 99 -7 -7 1002.9 996.5 -0.4
09 21.06 СВ 7
{10}
4000 м дымка 10/10 300 м
[St]
+0.2 -0.1 98 -7 -7 1003.7 997.4
12 21.06 СВ 5
{10}
4000 м дымка 10/10 300 м
[St]
+0.4 -0.1 96 -6 -6 1004.8 998.5
15 21.06 СВ 6-10
{10}
4000 м дымка 10/10 300 м
[St]
-0.1 -0.5 97 -7 -7 1005.5 999.1 +0.4
18 21.06 СВ 8-12
{12}
500 м туман ?/? 0.0 0.0 100 -8 -8 1005.4 999.1
21 21.06 В 8-10
{12}
200 м туман [диам. гололёда 0 мм] ?/? -0.1 -0.1 100 -8 -8 1005.9 999.5
00 22.06 В 7-10
{10}
200 м слабая переохл. морось (гололёд) {туман} ?/? -0.5 -0.5 100 -8 -8 1005.7 999.3
03 22.06 В 7-10
{11}
1000 м слабая переохл. морось (гололёд) {туман} 10/10 300 м
[St]
-0.7 -0.7 100 -8 -8 1005.4 998.9 -0.9 0.3 0
06 22.06 В 10-13
{13}
1000 м дымка {морось, туман} [диам. гололёда 4 мм] 10/10 200 м
[St]
-0.4 -0.5 99 -9 -9 1005.6 999.3 -1.0
09 22.06 В 10-14
{16}
4000 м дымка 10/10 300 м
[St]
-0.1 -0.2 99 -9 -9 1005.4 999.0
12 22.06 В 9-11
{17}
10 км 5/4 200 м
[St Ci fib]
+1.0 +0.5 96 -7 -6 1005.3 999.0
15 22.06 В 8-11
{14}
10 км 4/3 600 м
[Sc Ac trans Ci fib]
+1.3 +0.3 93 -6 -6 1004.5 998.2 +1.4 0.0
18 22.06 В 11-14
{14}
10 км 5/3 600 м
[Sc Ac trans Ci fib]
+1.2 +0.3 94 -7 -7 1003.2 996.9
21 22.06 В 12-15
{16}
10 км 9/8 600 м
[Sc Ac cast]
+1.1 +0.6 96 -8 -8 1001.9 995.6
00 23.06 В 10-13
{15}
500 м туман ?/? +1.1 +1.1 100 -7 -7 1001.2 994.9
03 23.06 В 10-12
{14}
200 м слабый ливневой дождь {туман} ?/? +0.8 +0.8 100 -7 -7 1000.3 994.0 +0.7 1 0
06 23.06 В 8-11
{12}
200 м туман {ливн. осадки} ?/? +3.0 +2.9 99 -4 -4 996.8 992.6
09 23.06 В 6
{11}
10 км {туман} 5/3 600 м
[Sc Cc]
+6.8 +6.0 95 +2 +5 997.7 991.5
12 23.06 В 8 10 км 8/6 300 м
[Sc Ac trans]
+4.5 +3.0 90 -2 -1 996.0 989.8
15 23.06 СЗ 3
{10}
10 км слабый ливневой дождь, в посл. час гроза 10/10 300 м
[Cb cap]
+2.6 +2.0 96 -2 -2 994.9 988.7 +10.7 4
18 23.06 Ю 2 10 км слабый ливневой дождь {гроза} 10/10 600 м
[Cb cap]
+6.5 +6.2 98 +4 +4 992.8 986.7
21 23.06 ЮЗ 4 10 км {ливн. осадки} 8/8 300 м
[Sc]
+6.9 +6.7 99 +3 +3 992.6 986.5
00 24.06 ЮЗ 4 4000 м дымка {туман} 10/10 300 м
[Sc]
+8.3 +8.1 99 +5 +5 993.4 987.3
03 24.06 Ю 7
{11}
200 м туман ?/? +8.5 +8.5 100 +4 +4 993.4 988.2 +1.8 8 0
06 24.06 ЮЗ 10-14
{14}
10 км {туман} 9/8 300 м
[Cu Sc Ac trans Ci fib]
+11.0 +9.1 88 +7 +7 995.3 989.3
09 24.06 ЮЗ 7-11
{14}
10 км 9/9 300 м
[Sc]
+12.2 +9.5 84 +9 +10 997.1 991.1
12 24.06 ЮЗ 6-10
{12}
10 км 3/1 300 м
[Sc Ci fib]
+14.4 +10.8 79 +13 +15 998.3 992.3
15 24.06 В 3
{10}
10 км 3/1 300 м
[Sc Ci sp]
+10.7 +8.3 85 +9 +10 999.2 993.2 +15.0
18 24.06 ЮЗ 4 10 км 9/9 300 м
[Cu Sc]
+11.1 +8.1 82 +9 +9 999.5 993.4
21 24.06 ЮВ 4 10 км 3/1 600 м
[Sc Ci fib]
+8.2 +6.0 86 +5 +5 999.3 993.2
00 25.06 З 3 500 м туман ?/? +3.6 +3.6 100 -1 -1 1000.6 994.4
03 25.06 500 м туман н/о +4.9 +4.9 100 +3 +6 1000.7 994.5 +3.5 0
06 25.06 СЗ 3 500 м туман 9/9 200 м
[St]
+3.6 +3.6 100 -1 0 1001.4 995.2
09 25.06 С 4 200 м туман ?/? +2.8 +2.8 100 -2 -2 1002.4 996.2
12 25.06 С 4 2000 м в посл. час туман 10/10 200 м
[St]
+2.2 +1.9 98 -3 -3 1003.2 996.9
15 25.06 С 2 200 м туман ?/? +1.1 +1.1 100 -3 -3 1004.0 997.7 +5.6
18 25.06 СЗ 2 200 м туман ?/? +1.2 +1.2 100 -3 -3 1005.0 998.6
21 25.06 СЗ 4 4000 м дымка {туман} 9/9 300 м
[St]
+1.0 +0.8 99 -4 -4 1005.4 999.1
00 26.06 СЗ 2 10 км {туман} 10/10 300 м
[Sc]
+1.6 +1.2 97 -2 -2 1006.8 1000.5
03 26.06 СЗ 3 10 км 10/10 600 м
[Sc]
+1.6 +0.6 93 -3 -3 1007.8 1001.5 +0.5
06 26.06 СЗ 2 10 км 10/10 600 м
[Sc]
+2.0 +0.4 89 -1 -1 1008.7 1002.4
09 26.06 СЗ 2 10 км 9/9 300 м
[Sc]
+2.7 +0.2 84 -0 +1 1009.9 1003.6
12 26.06 СВ 2 10 км 10/10 300 м
[Sc]
+3.0 -0.4 78 0 0 1010.7 1004.3 -1.0
15 26.06 В 4 10 км 10/10 300 м
[Sc]
+1.8 +0.3 90 -3 -3 1011.2 1004.9 +3.0
18 26.06 В 5 10 км 9/9 300 м
[Sc]
+0.7 -0.4 92 -5 -5 1011.4 1005.1
21 26.06 В 6 10 км 10/10 300 м
[Sc]
-0.4 -0.8 97 -7 -7 1011.2 1004.8
00 27.06 В 5
{10}
500 м туман ?/? -0.7 -0.7 100 -7 -7 1010.6 1004.2
03 27.06 В 6
{11}
500 м туман [диам. гололёда 1 мм] 10/10 300 м
[St]
-0.1 -0.2 99 -7 -7 1009.7 1003.3 -1.1
06 27.06 В 9-11
{12}
10 км {морось, туман} 10/10 300 м
[St]
+1.0 +0.6 97 -7 -7 1008.3 1001.9
09 27.06 В 12-15
{16}
2000 м в посл. час туман 10/10 200 м
[St]
+2.1 +1.9 99 -6 -6 1006.3 1000.0
12 27.06 В 10-13
{16}
10 км {туман} 9/8 300 м
[Sc Ac trans]
+2.5 +1.9 96 -5 -5 1005.2 998.9
15 27.06 В 8-10
{14}
10 км слабый ливневой дождь 10/8 600 м
[Cb cap Ac und]
+2.8 +2.1 95 -4 -4 1003.5 997.2 +3.0 0.4

 

Местоположение метеостанции Амдерма (Ненецкий АО, Россия): широта 69.77 долгота 61.68 высота над уровнем моря 48 м.

В архиве по умолчанию представлена погода в Амдерме за последнюю неделю. Архивные данные за месяц целиком и за предыдущие месяцы, начиная с января 2011 года, Вы можете получить, выбрав интересующий диапазон дат из раскрывающегося списка и нажав кнопку "Ввод!".

Внимание! Время в таблицах - всемирное. Для получения местного времени необходимо прибавить поправку, которая в Амдерме равна 3 ч.

Смотрите также архив погоды в соседних городах и на ближайших метеорологических станциях:

Погода на Мысе Белый Нос (Ненецкий АО, Россия) (60 км)
Погода в Имени Федорова (Ненецкий АО, Россия) (124 км)
Погода в Усть-Каре (Ненецкий АО, Россия) (139 км)
Погода в Варандее (Ненецкий АО, Россия) (179 км)
Погода в Inari Angeli (Финляндия) (186 км)
Погода в Марресаля (Ямало-Ненецкий АО, Россия) (197 км)
Погода в Воркуте (Коми, Россия) (271 км)
Погода на Мысе Константиновском (Ненецкий АО, Россия) (279 км)
Погода в Хорей-Вере (Ненецкий АО, Россия) (300 км)
Погода в Елецкой (Коми, Россия) (318 км)

Пояснения к столбцам:

Ветер - указаны скорость ветра в м/с - средняя за 10 мин, порывы в срок и между сроками (в фигурных скобках) и направление, откуда дует ветер: С - северный, СВ - северо-восточный, В - восточный, ЮВ - юго-восточный, Ю - южный, ЮЗ - юго-западный, З - западный, СЗ - северо-западный.
Видимость - горизонтальная дальность видимости в метрах или километрах. При видимости от 1 до 10 км при отсутствии осадков обычно наблюдается дымка, при ухудшении видимости до 1 км и менее - туман. В сухую погоду видимость может ухудшаться дымом, пылью или мглою.
Явления - указаны атмосферные явления, наблюдавшиеся в срок или в последний час перед сроком; фигурными скобками обозначены явления, наблюдавшиеся между сроками (за 1-3 часа до срока); квадратными скобками обозначены град или гололедные отложения с указанием их диаметра в мм.
Облачность - указаны через наклонную черту общая и нижняя облачность в баллах и высота нижней границы облаков в метрах; квадратными скобками обозначены формы облаков: Ci - перистые, Cs - перисто-слоистые, Cc - перисто-кучевые, Ac - высококучевые, As - высокослоистые, Sc - слоисто-кучевые, Ns - слоисто-дождевые, Cu - кучевые, Cb - кучево-дождевые. Подробнее классификацию облаков см. в Атласе облаков (PDF).
T - Температура воздуха - температура, измеренная на высоте 2 м над землей.
Td - Температура точки росы - температура, при понижении до которой содержащийся в воздухе водяной пар достигнет насыщения.
f - Относительная влажность воздуха - влажноcть воздуха, измеренная на высоте 2 м над землей.
Te - Эффективная температура - температура, которую ощущает одетый по сезону человек в тени. Характеристика душности погоды. При расчете учитывается влияние влажности воздуха и скорости ветра на теплоощущения человека.
Tes - Эффективная температура на солнце - температура, которую ощущает человек, с поправкой на солнечный нагрев. Характеристика знойности погоды. Зависит от высоты солнца над горизонтом, облачности и скорости ветра. Ночью, в пасмурную погоду, а также при ветре 12 м/с и более поправка равна нулю.
P - Атмосферное давление - приведенное к уровню моря атмосферное давление.
Po - Атмосферное давление - измеренное на уровне метеостанции атмосферное давление.
Tmin - Минимальная температура - минимум температуры воздуха на высоте 2 м над землей.
Tmax - Максимальная температура - максимум температуры воздуха на высоте 2 м над землей.
R - Количество осадков - Количество выпавших осадков за период времени, мм. При наведении курсора мыши на число - период времени, за который выпало указанное количество осадков.
R24 - Количество осадков - Количество выпавших осадков за 24 часа, мм.
S - Снежный покров - Высота снежного покрова, см. При наведении курсора мыши на число - состояние снежного покрова и степень покрытия местности в баллах.